Weather Roundup
Issued by NWS Springfield, MO

Home | Current Version | Previous Version | Text Only | Print | Product List | Glossary On
Versions: 1 2 3 4 5 6 7 8 9 10 11 12 13 14 15 16 17 18 19 20 21 22 23 24 25 26 27 28 29 30 31 32 33 34 35 36 37 38 39 40 41 42 43 44 45 46 47 48 49 50
000
NZUS99 KSGF 301057
HRRSGF

HOURLY WEATHER
NATIONAL WEATHER SERVICE SPRINGFIELD MO
600 AM CDT MON MAY 30 2016

......SGF CWA......

CITY           SKY/WX    TMP DP  RH WIND       PRES   REMARKS
SPRINGFIELD    CLOUDY    64  60  87 SE5       30.07R
ROLLA          CLEAR     62  60  93 S8        30.07R

......SURROUNDING SGF CWA......

CITY           SKY/WX    TMP DP  RH WIND       PRES   REMARKS
CHANUTE        CLOUDY    64  61  90 S5        30.02F
PARSONS        CLOUDY    64  62  93 SE3       30.04S
COFFEYVILLE    PTCLDY    63  62  97 E5        30.03R
EMPORIA        CLEAR     61  60  97 SE6       30.02F
HARRISON AR    MOCLDY    61  61 100 CALM      30.09R FOG

......KANSAS AND MISSOURI......

CITY           SKY/WX    TMP DP  RH WIND       PRES   REMARKS
KANSAS CTY INT PTCLDY    64  61  90 S5        30.03S
SEDALIA        CLEAR     66  63  90 S7        30.06R
ST JOSEPH      CLEAR     63  61  93 S3        30.03R
ST LOUIS       PTCLDY    67  61  81 CALM      30.06R
WICHITA        CLOUDY    65  59  81 S3        30.02S
TOPEKA         CLEAR     63  61  93 CALM      30.03R
OLATHE         CLEAR     61  60  97 S5        30.04R

......TENNESSEE......

CITY           SKY/WX    TMP DP  RH WIND       PRES   REMARKS
MEMPHIS        NOT AVBL
NASHVILLE      MOCLDY    67  64  90 CALM      30.05R

......ARKANSAS.......

CITY           SKY/WX    TMP DP  RH WIND       PRES   REMARKS
FAYETTEVILLE   CLOUDY    59  59 100 CALM      30.07R
FT SMITH       CLOUDY    67  64  90 E3        30.04R
LITTLE ROCK    MOCLDY    66  62  87 CALM      30.05S

......OKLAHOMA.......

CITY           SKY/WX    TMP DP  RH WIND       PRES   REMARKS
TULSA          CLOUDY    69  65  86 CALM      30.01S
PONCA CITY     CLOUDY    65  61  87 S3        30.03R
MCALESTER      LGT RAIN  68  64  87 SW7       30.07R
OKLAHOMA CITY  CLOUDY    65  64  97 SE12      30.02F

......IOWA............

CITY           SKY/WX    TMP DP  RH WIND       PRES   REMARKS
DES MOINES     NOT AVBL
QUAD CITIES    PTCLDY    62  58  86 S3        30.01S

......ILLINOIS........

CITY           SKY/WX    TMP DP  RH WIND       PRES   REMARKS
QUINCY         CLEAR     64  62  93 S6        30.03S
CHICAGO        PTCLDY    64  58  80 W5        30.01R




USA.gov is the U.S. government's official web portal to all federal, state and local government web resources and services.